Regional Weather Roundup
Issued by NWS

Home | Current Version | Previous Version | Text Only | Print | Product List | Glossary On
Versions: 1 2 3 4 5 6 7 8 9 10 11 12 13 14 15 16 17 18 19 20 21 22 23 24 25 26 27 28 29 30 31 32 33 34 35 36 37 38 39 40 41 42 43 44 45 46 47 48 49 50
000
ASUS43 KBIS 281020
RWRND

NORTH DAKOTA REGIONAL WEATHER ROUNDUP
NATIONAL WEATHER SERVICE BISMARCK ND
400 AM CST WED JAN 28 2015

NOTE: "FAIR" INDICATES FEW OR NO CLOUDS BELOW 12,000 FEET WITH NO
SIGNIFICANT WEATHER AND/OR OBSTRUCTIONS TO VISIBILITY.


NDZ001>003-009>011-017-281100-
NORTHWEST NORTH DAKOTA

CITY           SKY/WX    TMP DP  RH WIND       PRES   REMARKS
WILLISTON      MOCLDY    30  28  92 CALM      29.73F
MINOT          MOCLDY    30  27  88 NW8       29.74S FOG
MINOT AFB      CLOUDY    28  28 100 N6        29.74F
$$

NDZ018>021-031>035-040>046-281100-
SOUTHWEST NORTH DAKOTA

CITY           SKY/WX    TMP DP  RH WIND       PRES   REMARKS
BISMARCK       CLEAR     28  27  96 N3        29.74F
DICKINSON      PTCLDY    36  30  79 W8        29.71F
GARRISON         N/A     29  27  92 CALM      29.71F
HETTINGER ARPT MOCLDY    33  28  81 CALM      29.75F
$$

NDZ004>008-012>016-024-026-027-054-281100-
NORTHEAST NORTH DAKOTA

CITY           SKY/WX    TMP DP  RH WIND       PRES   REMARKS
GRAND FORKS    CLOUDY    34  32  92 S12       29.82F FOG
GRND FRKS AFB  CLOUDY    32  32 100 S12       29.81F FOG
DEVILS LAKE    CLOUDY    32  30  93 S9        29.75R VSB 1/2
$$

NDZ022-023-025-028>030-036>039-047>053-281100-
SOUTHEAST NORTH DAKOTA

CITY           SKY/WX    TMP DP  RH WIND       PRES   REMARKS
FARGO          CLOUDY    35  31  85 S18G28    29.83F
JAMESTOWN      FOG       32  32 100 S9        29.75F VSB 1/4
$$




USA.gov is the U.S. government's official web portal to all federal, state and local government web resources and services.